Torna al catalogo

IRIDIUM 33 DEB

AttivoPO
NORAD 39777·DEBRIS·🇺🇸 United States

Lanciato Sep 14, 1997 da Baikonur Cosmodrome

Loading…

Prossimi Passaggi (prossime 24 ore)

TLE

AggiornatoSource: Space-Track

Epoca: Sep 12, 2026, 20:22 UTC

1 39777U 97051AAJ 26255.84879133  .00004264  00000-0  82594-3 0  9995
2 39777  85.9575  41.1787 0054999 337.8402  22.0431 14.62126053641840

Traccia IRIDIUM 33 DEB in tempo reale con AllMySat

Download on the App Store